AirNav   ProFlight Series 2 Aviation Headset
 
 1024 users online  

72PA York Electro-Panel Personal Use Heliport
York, Pennsylvania, USA

GOING TO YORK?


FAA INFORMATION EFFECTIVE 18 JUNE 2020

Location

FAA Identifier: 72PA
Lat/Long: 40-02-00.3480N 076-39-58.8790W
40-02.005800N 076-39.981317W
40.0334300,-76.6663553
(estimated)
Elevation: 482 ft. / 147 m (estimated)
Variation: 10W (1985)
From city: 2 miles N of YORK, PA
Time zone: UTC -4 (UTC -5 during Standard Time)
Zip code: 17402

Heliport Operations

Heliport use: Private use. Permission required prior to landing
Activation date: 06/1976
Control tower: no
ARTCC: NEW YORK CENTER
FSS: WILLIAMSPORT FLIGHT SERVICE STATION
Attendance: 
Wind indicator: yes
Segmented circle: yes

Heliport Communications

WX ASOS at MDT (11 nm NW): 118.8 (717-944-1372)
WX ASOS at THV (12 nm SW): 119.275 (717-792-5529)
WX ASOS at CXY (14 nm NW): PHONE 717-770-0880
WX ASOS at LNS (18 nm E): 125.675 (717-569-8860)

Nearby radio navigation aids

VOR radial/distance  VOR name  Freq  Var
LRPr262/18.0LANCASTER VOR/DME117.3009W
HARr141/24.5HARRISBURG VORTAC112.5010W
RAVr197/31.3RAVINE VORTAC114.6011W
EMIr032/35.4WESTMINSTER VORTAC117.9008W

 
NDB name  Hdg/Dist  Freq  Var  ID
BELLGROVE202/24.732810WBZJ -... --.. .---

Heliport Services

Runway Information

Helipad H1

Dimensions: 90 x 90 ft. / 27 x 27 m
Surface: asphalt, in fair condition
Latitude: 40-02.005800N
Longitude: 076-39.981317W
Elevation: 482.0 ft.
Traffic pattern: leftleft
Markings: none, in fair condition

Heliport Ownership and Management from official FAA records

Ownership: Privately-owned
Owner: YORK ELEC.-PNL CTL. CO.INC.
PO BOX 1702
YORK, PA 17405
Phone 717-764-9864
Manager: DON E. ECKERT
PO BOX 1702
YORK, PA 17405
Phone 717-764-9864

Additional Remarks

FOR CD CTC HARRISBURG APCH AT 800-932-0712.

Instrument Procedures

There are no published instrument procedures at 72PA.

Some nearby airports with instrument procedures:

N71 - Donegal Springs Airpark (6 nm NE)
KMDT - Harrisburg International Airport (11 nm NW)
KTHV - York Airport (12 nm SW)
KCXY - Capital City Airport (14 nm NW)
58N - Reigle Field Airport (16 nm N)
KLNS - Lancaster Airport (18 nm E)
 
Loc | Ops | Rwys | IFR | FBO | Links
Com | Nav | Svcs | Stats | Notes
Area around 72PA (York Electro-Panel Personal Use Heliport)
 
Road maps at: MapQuest Bing Google
 
Aerial photo
No photo
 
Sectional chart

 
Airport distance calculator
Flying to York Electro-Panel Personal Use Heliport? Find the distance to fly.

From to 72PA

Sunrise and sunset
Times for 02-Jul-2020
 Local
(UTC-4)
 Zulu
(UTC)
Morning civil twilight05:1109:11
Sunrise05:4309:43
Sunset20:3800:38
Evening civil twilight21:1101:11

Current date and time
Zulu (UTC)  02-Jul-2020 22:26:46
Local (UTC-4)  02-Jul-2020 18:26:46
 
METAR
KMDT 
11nm NW 
022156Z 29009KT 10SM SCT070 SCT200 34/17 A2984 RMK AO2 SLP101 T03390167
KTHV 
12nm SW 
022153Z AUTO 30006KT 10SM CLR 31/17 A2986 RMK AO2 SLP110 T03110167
KCXY 
14nm NW 
022156Z 36009KT 10SM CLR 34/14 A2985 RMK AO2 SLP105 T03440144
KLNS 
18nm E 
022153Z 31009KT 10SM FEW070 33/16 A2984 RMK AO2 SLP100 T03280161
TAF
KMDT 
11nm NW 
021720Z 0218/0318 34008KT P6SM VCSH BKN060 FM030000 28003KT P6SM SKC FM030600 31003KT P6SM SCT250 FM031600 32007KT P6SM SCT060
KLNS 
18nm E 
021720Z 0218/0318 35009KT P6SM VCSH BKN060 FM030100 32003KT P6SM SKC FM030600 31003KT P6SM SCT250 FM031600 32007KT P6SM SCT060
NOTAMs
Click for the latest NOTAMs
NOTAMs are issued by the DoD/FAA and will open in a separate window not controlled by AirNav.

 

 
 

Would you like to see your business listed on this page?

 If your business provides an interesting product or service to pilots, flight crews, aircraft, or users of the York Electro-Panel Personal Use Heliport, you should consider listing it here.  To start the listing process, click on the button below
 
Add a business
 

Other Pages about York Electro-Panel Personal Use Heliport

Update a link
 
Copyright © AirNav, LLC. All rights reserved. Privacy Policy  Contact